Date String (YYYY-MM-DD hh:mm:ss) UTC,Instrument flags,Ambient pressure (hPa),Sample flow (lpm),Bypass flow (lpm),Sample temperature (°C),Ambient temperature (°C),ASC tube jacket temperature (°C),LED temperature (°C),Box temperature (°C),Sample RH (%),Span deviation,Mass concentration (μg/m³),Mass concentration (μg/m³),Mass concentration (μg/m³)
DateTimeUTC,F1_M11,P_M11,Q1_M11,Q2_M11,T1_M11,T2_M11,T3_M11,T4_M11,T5_M11,U1_M11,ZSPAN_M11,X0_M11,X2_M11,X1_M11
2022-05-21 01:00:00,,0825.4,5.01,0.00,22.3,21.3,00.0,31.3,24.1,20.9,0000.0,0002.38,0001.92,0001.83
2022-05-21 01:01:00,,0825.5,5.00,0.00,22.3,21.3,00.0,31.3,24.2,20.9,0000.0,0002.42,0001.96,0001.87
2022-05-21 01:02:00,,0825.5,5.01,0.00,22.3,21.3,00.0,31.3,24.1,20.9,0000.0,0002.48,0002.01,0001.91
2022-05-21 01:03:00,,0825.5,5.01,0.00,22.3,21.3,00.0,31.3,24.1,20.9,0000.0,0002.50,0002.01,0001.92
2022-05-21 01:04:00,,0825.5,4.99,0.00,22.3,21.3,00.0,31.3,24.1,20.9,0000.0,0002.49,0002.02,0001.93
2022-05-21 01:05:00,,0825.5,5.00,0.00,22.3,21.3,00.0,31.3,24.1,20.9,0000.0,0002.50,0002.04,0001.96
2022-05-21 01:06:00,,0825.5,4.98,0.00,22.3,21.3,00.0,31.3,24.2,20.9,0000.0,0002.54,0002.06,0001.97
2022-05-21 01:07:00,,0825.4,5.00,0.00,22.3,21.3,00.0,31.3,24.2,20.9,0000.0,0002.55,0002.05,0001.95
2022-05-21 01:08:00,,0825.4,5.00,0.00,22.3,21.3,00.0,31.3,24.2,20.8,0000.0,0002.47,0001.99,0001.89
2022-05-21 01:09:00,,0825.4,5.01,0.00,22.3,21.3,00.0,31.3,24.2,20.8,0000.0,0002.38,0001.92,0001.84
2022-05-21 01:10:00,,0825.4,5.00,0.00,22.3,21.2,00.0,31.3,24.1,20.8,0000.0,0002.29,0001.85,0001.77
2022-05-21 01:11:00,,0825.5,5.01,0.00,22.2,21.2,00.0,31.3,24.1,20.8,0000.0,0002.22,0001.79,0001.71
2022-05-21 01:12:00,,0825.4,5.01,0.00,22.2,21.2,00.0,31.3,24.1,20.8,0000.0,0002.15,0001.73,0001.66
2022-05-21 01:13:00,,0825.4,5.00,0.00,22.2,21.2,00.0,31.3,24.1,20.8,0000.0,0002.10,0001.67,0001.59
2022-05-21 01:14:00,,0825.4,5.00,0.00,22.2,21.1,00.0,31.2,24.0,20.8,0000.0,0002.03,0001.62,0001.54
2022-05-21 01:15:00,,0825.4,4.99,0.00,22.2,21.1,00.0,31.2,24.0,20.9,0000.0,0001.96,0001.57,0001.49
2022-05-21 01:16:00,,0825.4,5.00,0.00,22.2,21.0,00.0,31.2,24.0,20.9,0000.0,0001.90,0001.51,0001.43
2022-05-21 01:17:00,,0825.5,5.02,0.00,22.1,21.0,00.0,31.2,23.9,20.9,0000.0,0001.82,0001.46,0001.39
2022-05-21 01:18:00,,0825.5,5.00,0.00,22.1,21.0,00.0,31.2,23.9,20.9,0000.0,0001.74,0001.42,0001.36
2022-05-21 01:19:00,,0825.5,4.99,0.00,22.1,21.0,00.0,31.2,23.9,21.6,0000.0,0001.72,0001.40,0001.34
2022-05-21 01:20:00,,0825.5,5.01,0.00,22.1,21.0,00.0,31.2,23.9,23.6,0000.0,0001.71,0001.39,0001.32
2022-05-21 01:21:00,,0825.5,5.00,0.00,22.1,21.0,00.0,31.2,23.9,22.8,0000.0,0001.71,0001.38,0001.31
2022-05-21 01:22:00,,0825.5,4.99,0.00,22.1,21.0,00.0,31.2,23.9,21.6,0000.0,0001.75,0001.38,0001.30
2022-05-21 01:23:00,,0825.4,5.01,0.00,22.1,20.9,00.0,31.1,23.9,21.4,0000.0,0001.73,0001.37,0001.28
2022-05-21 01:24:00,,0825.4,5.00,0.00,22.1,20.9,00.0,31.1,23.9,21.3,0000.0,0001.68,0001.35,0001.28
2022-05-21 01:25:00,,0825.5,4.99,0.00,22.0,20.9,00.0,31.1,23.9,21.3,0000.0,0001.67,0001.34,0001.27
2022-05-21 01:26:00,,0825.4,4.99,0.00,22.0,20.9,00.0,31.1,23.9,21.2,0000.0,0001.66,0001.33,0001.26
2022-05-21 01:27:00,,0825.4,5.00,0.00,22.1,21.0,00.0,31.1,23.9,21.2,0000.0,0001.65,0001.32,0001.25
2022-05-21 01:28:00,,0825.4,5.01,0.00,22.0,21.0,00.0,31.1,23.9,21.2,0000.0,0001.60,0001.31,0001.24
2022-05-21 01:29:00,,0825.5,4.99,0.00,22.0,20.9,00.0,31.1,23.9,21.2,0000.0,0001.61,0001.31,0001.24
2022-05-21 01:30:00,,0825.5,5.00,0.00,22.0,20.9,00.0,31.1,23.9,21.1,0000.0,0001.63,0001.33,0001.26
2022-05-21 01:31:00,,0825.5,5.00,0.00,22.0,20.9,00.0,31.1,23.8,21.1,0000.0,0001.63,0001.34,0001.28
2022-05-21 01:32:00,,0825.6,5.00,0.00,22.0,20.9,00.0,31.1,23.8,21.1,0000.0,0001.64,0001.36,0001.30
2022-05-21 01:33:00,,0825.5,5.01,0.00,22.0,20.9,00.0,31.1,23.8,21.1,0000.0,0001.66,0001.39,0001.33
2022-05-21 01:34:00,,0825.5,5.01,0.00,22.0,20.9,00.0,31.0,23.9,21.1,0000.0,0001.70,0001.42,0001.37
2022-05-21 01:35:00,,0825.5,4.99,0.00,22.1,21.2,00.0,31.0,24.0,21.0,0000.0,0001.73,0001.45,0001.40
2022-05-21 01:36:00,,0825.6,5.00,0.00,22.2,21.6,00.0,31.0,24.3,21.0,0000.0,0001.83,0001.51,0001.44
2022-05-21 01:37:00,,0825.6,5.01,0.00,22.3,22.0,00.0,31.1,24.4,20.8,0000.0,0001.86,0001.54,0001.47
2022-05-21 01:38:00,,0825.7,5.00,0.00,22.3,22.0,00.0,31.1,24.4,20.7,0000.0,0001.93,0001.59,0001.51
2022-05-21 01:39:00,,0825.7,5.00,0.00,22.3,21.9,00.0,31.2,24.4,20.7,0000.0,0002.01,0001.63,0001.54
2022-05-21 01:40:00,,0826.2,4.99,0.00,22.3,21.9,00.0,31.2,24.3,20.7,0000.0,0002.09,0001.68,0001.57
2022-05-21 01:41:00,,0825.8,5.00,0.00,22.4,21.9,00.0,31.2,24.3,20.7,0000.0,0002.13,0001.71,0001.59
2022-05-21 01:42:00,,0825.9,5.01,0.00,22.4,21.8,00.0,31.2,24.3,20.7,0000.0,0002.20,0001.74,0001.62
2022-05-21 01:43:00,,0825.7,5.00,0.00,22.4,21.8,00.0,31.2,24.2,20.7,0000.0,0002.24,0001.79,0001.66
2022-05-21 01:44:00,,0825.8,5.00,0.00,22.3,21.7,00.0,31.3,24.2,20.7,0000.0,0002.21,0001.79,0001.68
2022-05-21 01:45:00,,0825.8,5.00,0.00,22.3,21.6,00.0,31.3,24.2,20.6,0000.0,0002.18,0001.78,0001.68
2022-05-21 01:46:00,,0825.9,5.00,0.00,22.3,21.6,00.0,31.3,24.2,20.7,0000.0,0002.23,0001.82,0001.70
2022-05-21 01:47:00,,0826.0,5.00,0.00,22.3,21.5,00.0,31.3,24.1,20.7,0000.0,0002.18,0001.81,0001.72
2022-05-21 01:48:00,,0826.0,5.00,0.00,22.3,21.5,00.0,31.3,24.1,20.7,0000.0,0002.17,0001.82,0001.73
2022-05-21 01:49:00,,0826.0,5.01,0.00,22.3,21.5,00.0,31.3,24.1,20.7,0000.0,0002.16,0001.83,0001.74
2022-05-21 01:50:00,,0826.0,5.01,0.00,22.3,21.4,00.0,31.3,24.1,20.7,0000.0,0002.15,0001.83,0001.75
2022-05-21 01:51:00,,0825.9,5.00,0.00,22.3,21.4,00.0,31.3,24.1,20.7,0000.0,0002.11,0001.83,0001.76
2022-05-21 01:52:00,,0826.0,4.99,0.00,22.3,21.4,00.0,31.3,24.1,20.7,0000.0,0002.10,0001.84,0001.77
2022-05-21 01:53:00,,0825.9,5.00,0.00,22.3,21.4,00.0,31.3,24.1,20.7,0000.0,0002.06,0001.83,0001.77
2022-05-21 01:54:00,,0825.9,5.00,0.00,22.3,21.3,00.0,31.3,24.1,20.7,0000.0,0002.03,0001.80,0001.75
2022-05-21 01:55:00,,0825.8,5.00,0.00,22.3,21.3,00.0,31.3,24.1,20.7,0000.0,0002.01,0001.78,0001.73
2022-05-21 01:56:00,,0825.8,5.00,0.00,22.3,21.3,00.0,31.3,24.1,20.7,0000.0,0002.01,0001.78,0001.73
2022-05-21 01:57:00,,0825.8,5.00,0.00,22.3,21.3,00.0,31.3,24.1,20.7,0000.0,0002.03,0001.79,0001.72
2022-05-21 01:58:00,,0826.0,5.00,0.00,22.3,21.3,00.0,31.3,24.1,20.7,0000.0,0002.01,0001.77,0001.71
2022-05-21 01:59:00,,0825.9,5.01,0.00,22.3,21.3,00.0,31.3,24.1,20.7,0000.0,0001.98,0001.74,0001.67
